Wind_Speed
54 58 58 53 54 58 59 63 65 59 54 56 59 57 54 58 61 62 57 50 49 51 51 49 47 44 42 41 40 40 39 37 34 34 35 35 32 31 30 28 26 29 34 33 33 33 30 28 29 30 32 35 35 31 28 28 25 19 17 15 11 12 11 9 9 10 9 8 8 7 7 7 6 6 5 5 5 4 5 5 5 5 3 2 3 3 3 4
56 57 58 53 50 56 57 60 65 62 57 56 60 59 54 55 58 61 56 50 50 50 51 51 49 48 44 42 41 39 39 37 36 36 34 33 33 33 31 29 27 28 32 33 33 33 30 28 28 28 31 35 36 33 30 30 29 22 18 17 14 14 14 12 12 12 13 11 9 7 7 8 7 7 7 6 5 5 5 5 5 5 4 2 2 3 3 4
56 56 58 56 49 53 57 59 64 65 60 56 60 60 54 55 56 58 56 52 50 49 51 50 49 51 47 43 42 39 38 38 39 39 36 34 34 34 32 29 28 27 30 34 33 31 29 26 26 25 28 35 36 34 32 31 30 25 19 17 18 18 16 14 13 14 15 13 11 9 9 8 8 9 7 6 7 6 5 5 5 5 5 4 3 3 3 4
57 56 57 57 51 50 55 58 63 67 63 58 60 60 54 55 56 56 56 53 50 47 49 50 49 51 50 46 42 40 38 39 45 43 37 36 35 35 34 30 29 28 29 33 33 30 29 27 25 23 24 31 37 36 33 31 29 26 23 20 20 20 17 16 15 15 16 15 12 11 10 9 9 10 8 8 8 5 4 6 7 7 8 7 6 6 5 5
56 56 57 57 52 50 52 57 62 66 66 61 60 60 54 55 58 55 55 55 52 48 48 50 50 50 52 49 44 43 39 41 48 44 39 38 36 35 35 33 31 29 29 32 34 32 30 27 25 24 23 27 35 39 37 34 31 26 26 24 21 19 19 18 16 16 16 17 15 12 12 11 11 11 9 9 7 6 8 9 10 11 10 9 8 9 8 8
55 55 56 56 52 50 50 55 61 65 66 64 60 58 55 56 59 56 53 55 55 50 48 48 49 49 52 51 46 45 45 45 47 44 43 40 36 36 35 34 32 30 30 33 36 34 31 29 27 26 25 25 32 39 39 37 35 29 26 27 24 20 20 19 18 17 17 17 17 15 15 13 12 12 12 11 8 8 11 12 11 12 11 10 9 8 9 9
54 54 55 55 52 49 48 50 58 63 64 66 63 55 55 57 58 58 53 52 54 50 49 49 48 49 50 50 48 48 50 49 44 42 44 42 37 36 35 34 33 31 30 33 35 35 32 31 30 28 26 25 29 35 38 36 37 33 27 26 25 22 20 20 19 18 18 18 18 17 17 15 15 14 14 11 8 11 13 13 13 13 12 10 9 8 8 10
54 54 54 53 50 48 48 47 54 60 58 64 67 56 54 59 57 58 53 48 52 51 50 50 49 49 49 49 52 53 55 53 46 41 42 43 39 37 36 35 34 32 31 33 36 36 34 32 31 29 27 26 26 30 33 33 36 37 33 27 24 23 22 21 20 19 18 19 19 20 18 18 17 17 15 11 9 14 15 14 15 14 13 11 10 9 9 10
52 52 52 52 48 47 47 46 51 57 54 58 68 61 53 59 57 57 54 47 49 53 51 51 50 50 49 50 53 56 58 54 48 42 39 42 42 39 38 37 36 34 33 33 35 36 35 34 32 29 27 25 25 27 29 31 33 35 36 32 26 23 22 22 22 20 19 19 20 21 19 20 19 19 17 12 12 15 16 16 15 14 13 12 11 11 11 11
51 50 51 50 47 46 45 45 48 52 52 53 65 66 52 54 57 56 57 49 46 53 53 53 53 51 52 53 54 58 57 49 48 46 39 38 42 41 38 37 36 35 33 32 34 37 36 33 30 26 25 24 25 27 28 29 30 30 32 34 33 29 24 22 22 21 20 19 20 21 21 22 22 22 19 13 13 15 16 16 15 14 14 13 12 12 13 13
49 48 49 49 47 47 44 44 45 46 48 51 61 69 55 50 55 56 57 51 46 51 52 53 56 54 53 55 58 60 54 47 47 48 42 37 38 41 39 37 37 35 32 32 34 37 37 33 29 26 25 25 25 24 25 27 26 25 26 27 30 33 28 22 21 21 20 20 20 21 23 24 25 24 20 14 13 15 16 17 16 15 14 14 14 14 14 14
49 48 47 47 45 45 44 41 41 42 44 49 57 68 62 52 56 57 54 52 48 48 47 50 56 55 53 55 59 59 52 47 46 46 45 40 34 36 38 36 35 34 31 31 33 35 35 32 30 29 27 26 25 23 23 25 24 23 24 24 24 28 30 27 25 23 20 20 20 20 23 27 28 26 20 15 15 16 17 18 17 16 16 15 15 15 15 15
49 47 44 44 43 42 43 39 38 39 41 47 52 64 67 54 54 57 53 52 47 47 47 48 53 54 54 57 59 57 51 47 46 45 45 43 35 33 36 36 33 32 30 30 32 34 35 32 31 32 29 26 25 23 21 22 24 25 24 24 23 24 29 30 29 28 23 21 20 19 22 26 28 26 22 19 17 17 18 18 18 17 17 17 16 17 16 16
46 45 42 41 42 41 40 36 34 36 38 43 45 57 69 58 53 57 56 53 45 47 51 51 55 56 55 57 58 58 54 48 46 46 46 44 39 33 35 37 33 32 31 32 34 34 35 33 31 31 31 28 26 24 22 20 22 26 26 25 26 26 26 27 27 30 29 24 21 20 24 30 29 25 23 22 19 18 19 19 19 19 18 18 17 17 17 17
43 43 41 39 41 41 38 34 32 34 35 37 40 50 66 64 54 56 63 57 43 45 52 52 56 57 56 59 58 57 55 51 49 48 46 44 42 37 35 37 36 34 34 34 35 34 34 33 31 31 31 29 27 25 24 22 20 23 24 22 25 27 25 24 22 26 30 27 23 20 24 31 30 26 24 23 22 20 20 19 20 20 19 19 19 18 18 18
40 40 39 38 39 38 35 33 31 33 33 37 43 46 59 67 57 54 65 61 44 43 52 51 54 57 57 61 60 56 56 55 52 48 46 43 42 39 35 36 37 36 36 37 36 35 34 32 32 31 30 30 30 27 25 24 22 23 22 16 20 25 23 22 20 23 28 28 25 22 25 29 27 26 25 24 24 23 21 21 20 20 20 20 20 20 20 20
38 38 39 37 36 34 33 33 31 32 32 39 47 45 54 66 62 55 63 64 42 35 47 47 48 54 57 60 62 59 57 58 55 49 48 44 41 40 36 36 39 38 38 38 38 36 35 34 34 32 31 31 31 30 27 24 22 23 22 17 18 22 21 21 20 21 25 28 27 26 30 33 28 26 26 25 25 26 24 22 21 21 21 22 22 22 22 22
37 38 38 35 34 33 34 34 33 32 32 34 39 42 49 60 64 59 63 62 39 28 43 48 49 54 55 59 64 61 58 58 57 52 50 47 42 39 37 36 38 40 39 39 39 38 37 36 35 34 34 33 32 34 32 26 24 24 23 21 22 23 23 23 21 19 23 27 28 28 32 36 32 29 28 26 26 27 27 25 24 23 23 23 24 23 23 23
36 36 35 34 34 34 34 35 33 32 31 30 33 38 43 51 62 63 61 55 40 35 44 53 61 60 56 61 63 61 59 57 57 54 50 49 46 41 38 36 38 41 42 41 41 40 39 36 35 37 38 38 37 37 34 27 24 24 22 21 23 23 23 24 21 20 24 27 27 28 32 36 34 32 30 29 28 27 27 27 26 25 24 24 24 24 24 24
35 35 35 35 35 35 35 34 34 33 31 30 32 37 41 47 58 62 56 48 44 41 34 45 67 65 60 64 62 62 60 55 55 55 52 50 48 46 42 41 41 42 44 44 43 42 40 38 40 42 41 40 37 33 31 26 24 24 22 23 25 23 24 24 20 21 25 29 30 29 30 35 36 34 33 33 32 30 29 28 28 27 26 25 25 24 24 25
34 35 35 35 35 36 36 35 34 33 31 30 33 39 43 47 58 64 59 47 47 41 21 31 63 69 65 66 63 65 63 58 56 55 54 51 48 48 47 47 47 46 46 46 45 43 41 42 44 44 40 36 33 30 28 27 26 27 26 26 27 25 25 24 20 21 25 31 35 33 31 36 37 34 35 35 36 35 31 29 28 28 27 26 26 25 25 25
32 34 35 34 34 35 35 36 35 34 33 31 34 40 42 47 57 63 60 51 48 42 21 26 53 66 64 61 60 64 65 62 58 56 57 53 49 49 49 50 51 51 49 47 47 44 44 47 45 42 39 33 31 31 29 28 27 28 29 28 26 26 25 23 21 21 25 31 37 37 36 38 38 36 37 38 39 38 35 32 29 28 29 28 27 26 26 26
32 33 34 33 33 34 35 35 35 35 34 33 36 38 38 44 51 56 56 48 45 46 33 32 50 62 60 56 58 59 61 62 60 59 58 56 54 51 50 50 49 50 53 51 49 47 47 47 41 39 39 35 33 33 31 29 29 28 30 28 26 27 24 19 19 21 25 29 34 38 41 43 40 37 39 40 41 40 38 36 33 31 31 30 30 28 27 26
32 33 33 33 34 35 36 35 35 35 34 34 38 36 33 39 45 52 54 44 40 46 42 36 46 60 59 55 58 58 59 62 62 61 59 58 57 53 52 50 47 48 52 53 52 50 48 43 38 38 38 36 34 34 33 30 29 28 30 29 27 27 25 21 19 20 21 24 29 32 35 44 48 44 41 40 41 43 42 39 37 35 33 31 31 30 28 27
32 31 32 34 35 37 36 35 35 35 35 36 39 36 28 30 36 43 50 45 38 41 44 37 36 51 58 52 53 56 57 60 62 61 60 60 58 57 53 50 49 49 48 48 50 51 50 45 40 38 38 38 36 36 36 31 29 29 31 31 28 25 25 22 21 20 17 17 24 23 19 28 42 47 45 42 41 43 45 43 41 38 35 35 33 32 30 28
32 31 32 33 36 38 36 36 35 34 36 37 41 39 28 27 29 33 40 38 33 37 41 37 32 42 54 50 48 53 54 59 60 58 58 57 57 57 54 49 48 49 47 43 43 46 50 48 42 38 37 38 37 36 36 31 27 29 31 28 23 22 21 20 21 19 14 13 18 20 14 15 30 41 42 43 44 44 45 45 45 42 39 38 36 34 32 30
33 32 32 32 36 38 37 37 35 35 38 38 42 42 34 32 28 27 29 21 24 37 38 36 36 42 52 51 50 56 56 59 59 55 56 56 54 53 53 52 48 47 47 42 36 38 45 46 43 40 37 37 39 36 34 31 26 27 28 21 18 19 19 19 21 20 19 18 17 21 20 14 28 42 39 38 43 44 46 46 46 45 43 41 38 36 34 32
33 32 32 32 35 39 38 37 35 35 36 37 40 41 39 36 27 24 23 8 12 32 35 33 38 43 51 52 52 59 61 62 62 55 55 56 53 52 52 53 52 49 47 45 41 38 40 43 43 41 36 36 39 36 32 32 29 28 24 18 16 15 17 19 21 22 22 20 17 21 22 13 22 41 40 36 40 44 47 48 45 45 44 43 41 38 35 33
31 32 33 33 35 39 39 37 37 36 35 36 37 39 39 34 27 26 20 7 11 24 29 32 38 43 51 52 53 59 60 60 64 60 58 58 55 52 50 49 49 47 45 46 46 39 34 36 38 38 37 37 36 33 31 30 30 27 20 15 14 12 14 18 20 22 19 17 16 19 21 14 19 38 44 41 42 42 43 45 45 44 44 44 43 40 37 34
27 29 31 34 37 39 40 39 37 36 34 35 35 38 38 32 31 24 11 9 16 20 25 31 38 44 52 56 56 61 59 56 62 62 58 58 55 52 50 46 45 45 44 43 43 40 35 32 33 36 37 37 36 32 29 26 25 23 17 14 12 10 11 14 17 19 13 12 15 16 19 13 15 32 42 44 44 41 38 39 41 43 44 45 44 43 40 36
23 26 28 33 37 39 40 39 38 36 34 35 35 37 38 35 32 17 4 12 18 17 24 30 36 44 53 61 59 59 58 55 61 64 59 57 55 54 51 44 43 43 44 44 38 35 36 36 36 38 37 35 34 32 27 24 23 20 18 17 13 10 8 9 11 13 9 5 5 12 17 14 16 28 37 41 41 39 37 35 35 39 43 44 44 44 43 40
20 22 25 31 36 38 40 38 37 36 34 35 35 37 40 33 26 14 6 15 15 15 27 30 35 44 54 62 60 60 61 57 61 64 63 61 57 58 55 49 49 42 39 44 40 33 35 39 40 38 38 36 33 31 26 23 25 23 22 23 15 8 5 6 5 6 10 7 2 5 10 16 29 37 39 42 41 38 37 33 31 33 37 42 43 42 42 43
18 20 22 28 34 38 40 38 36 35 34 33 30 37 41 23 16 21 17 15 10 14 25 30 36 46 56 59 55 56 60 59 62 64 64 64 60 60 57 54 57 47 40 47 44 34 28 31 41 40 37 39 35 35 35 32 31 30 28 27 19 8 4 7 5 3 7 9 9 11 11 18 31 32 32 36 35 32 33 33 31 29 30 34 39 41 41 42
18 19 20 24 30 35 38 37 35 35 35 33 26 33 38 17 9 26 30 19 11 12 21 30 38 46 57 59 52 53 57 55 61 65 65 65 59 57 56 53 55 52 47 46 41 37 27 21 38 45 39 41 38 36 38 36 34 31 28 28 24 17 9 5 6 5 2 4 12 17 12 11 14 14 16 20 21 21 23 25 27 28 28 28 32 36 38 40
18 19 19 21 26 32 36 35 34 34 35 35 29 28 32 22 15 24 33 30 21 15 18 28 39 43 48 52 50 55 58 54 60 64 63 65 60 58 61 59 57 56 53 45 36 39 35 24 35 45 40 40 38 34 32 30 30 29 28 28 26 24 15 4 5 9 4 1 8 17 19 20 21 23 22 20 23 22 17 17 20 23 26 27 30 33 33 34
18 19 19 20 22 27 32 34 33 33 34 35 33 28 27 26 22 20 27 37 34 24 20 25 38 43 40 41 45 52 55 56 63 63 58 63 64 62 64 62 62 62 59 54 43 38 33 22 29 40 35 32 35 36 34 31 30 31 32 33 29 26 21 9 4 7 6 5 8 15 23 29 31 33 32 30 33 33 25 20 19 19 19 21 25 28 30 32
15 17 17 17 20 23 28 31 31 31 33 34 35 34 30 27 27 21 21 33 36 31 29 29 35 40 37 38 42 47 51 55 61 60 53 55 58 61 64 60 61 64 62 60 50 42 35 22 23 37 34 28 30 32 33 33 31 32 36 39 33 23 22 17 6 3 6 6 7 12 20 23 21 22 23 20 21 26 26 23 22 20 15 14 14 14 20 28
13 14 13 14 18 21 24 26 29 30 31 32 35 39 38 32 33 30 23 27 32 33 35 34 36 39 38 39 41 44 51 54 55 54 49 47 47 56 65 61 60 63 61 58 48 44 41 22 16 30 32 26 27 27 31 33 32 33 34 36 31 18 15 19 11 3 5 6 6 8 15 23 28 29 26 20 12 11 14 14 15 16 15 16 16 12 14 20
13 12 10 10 15 19 22 22 26 30 31 33 36 40 43 39 36 34 27 25 28 31 34 34 37 41 42 41 42 46 54 56 56 54 50 48 46 54 66 64 61 61 59 57 48 44 45 25 13 27 33 27 29 31 35 38 37 35 31 30 31 21 11 16 18 9 4 5 7 5 6 17 33 37 33 31 25 21 20 18 15 13 12 15 17 17 17 18
14 12 10 10 12 15 19 20 23 29 33 36 38 39 43 45 42 36 28 23 24 29 33 33 33 40 44 44 43 48 54 58 63 59 54 56 51 51 63 65 63 62 57 53 46 40 43 33 20 27 33 31 34 38 42 43 42 41 36 32 33 30 16 12 21 22 12 5 4 5 6 11 22 27 23 20 18 18 20 21 20 18 15 12 12 16 21 23
13 14 10 9 11 13 17 21 23 29 35 38 41 41 43 47 46 41 35 26 23 28 34 33 33 39 44 46 46 47 48 54 63 60 53 57 55 49 60 67 64 62 58 52 45 38 38 36 29 32 36 36 38 41 42 41 43 45 44 41 40 39 29 14 14 25 25 14 6 4 7 14 25 26 20 14 10 8 10 12 15 16 18 16 15 19 23 24
13 13 7 6 10 12 17 22 24 29 36 40 42 42 43 46 45 44 43 34 26 28 33 34 36 40 44 48 50 49 48 52 59 58 52 58 61 55 57 65 63 59 59 54 47 42 37 33 32 33 36 36 33 37 41 39 41 41 41 43 42 40 38 22 8 15 25 24 19 10 8 24 41 36 26 24 19 14 13 12 10 12 18 21 20 22 23 24
14 11 7 5 8 12 17 22 25 29 35 39 41 42 44 47 46 43 44 40 32 29 32 34 37 41 44 46 48 50 52 52 55 57 53 53 60 55 51 60 63 57 59 58 50 45 37 31 30 26 23 27 25 28 35 36 36 38 41 44 43 42 43 30 13 12 17 22 23 11 7 31 47 38 33 33 26 18 15 13 14 15 19 23 24 24 22 22
14 12 10 10 10 14 19 23 25 29 34 38 40 42 44 46 48 47 45 43 40 33 30 32 36 42 45 45 48 52 53 48 46 50 50 47 54 55 48 55 64 60 59 60 57 50 38 31 33 23 11 11 13 12 23 34 39 42 44 43 43 45 42 33 26 17 11 17 21 10 13 40 47 36 33 31 23 18 16 15 18 20 22 25 26 25 24 22
14 13 11 11 13 16 19 22 25 28 34 40 43 44 45 46 48 50 47 44 44 41 35 31 32 40 47 46 46 50 51 46 45 49 48 44 47 52 48 49 59 63 59 56 56 53 41 36 39 30 16 12 15 16 26 41 45 41 39 39 41 42 39 38 35 21 15 27 30 25 29 44 42 34 30 23 16 15 16 17 19 20 21 23 22 22 21 20
16 16 13 11 15 19 18 18 24 30 33 40 45 47 47 48 49 52 51 47 45 42 38 35 31 34 44 47 43 45 47 45 46 50 49 46 47 49 47 45 50 58 57 52 51 50 43 39 41 41 35 34 37 35 34 39 41 38 39 41 42 42 42 43 36 30 33 33 31 39 49 47 41 36 27 18 13 12 17 20 20 20 20 19 18 19 19 18
18 21 19 13 15 24 27 23 25 33 35 38 46 49 49 50 51 52 51 50 48 40 35 38 37 31 37 46 44 43 45 41 42 46 46 46 47 44 40 37 41 52 56 51 49 47 42 40 42 43 41 41 43 39 33 32 34 38 41 43 43 42 44 44 41 45 45 26 20 42 51 45 46 44 35 29 25 21 21 24 23 21 21 20 19 20 19 18
22 24 24 19 16 26 33 30 28 33 37 40 45 50 51 53 54 52 48 49 52 45 34 35 41 38 38 46 49 46 45 38 36 41 43 42 41 38 34 30 35 47 53 49 47 46 42 42 44 41 36 36 36 35 33 31 30 33 37 40 42 43 45 47 48 52 47 34 33 46 44 43 48 46 43 40 33 28 25 26 28 26 23 21 19 19 20 19
27 27 27 25 24 26 28 30 32 35 41 44 46 51 54 54 58 57 51 49 52 50 41 36 41 43 41 45 50 51 52 46 39 43 48 46 42 40 40 37 36 42 48 49 48 44 41 40 40 39 37 35 33 31 31 30 27 28 31 34 38 40 42 45 46 47 48 48 49 48 44 46 45 42 44 43 36 32 28 28 31 30 27 26 22 20 20 20
30 30 29 28 29 30 29 30 36 41 44 47 50 56 56 55 60 61 56 55 54 51 49 44 41 43 44 45 49 54 58 59 55 54 57 56 50 48 49 49 48 44 44 49 49 46 43 37 36 40 37 29 28 26 24 25 25 25 26 28 34 39 43 46 46 46 50 51 48 46 49 49 41 38 42 42 41 39 35 35 34 31 31 32 29 26 23 20
31 30 29 29 31 33 33 35 39 44 48 51 54 58 58 58 62 61 57 60 59 54 56 52 43 42 47 49 52 57 58 58 59 59 59 58 57 57 55 53 54 52 48 49 50 49 47 35 31 38 33 22 22 21 17 19 18 17 24 31 37 42 46 47 45 43 46 45 42 45 50 46 38 35 37 41 43 41 39 39 37 34 35 34 33 32 27 23
33 32 31 32 35 37 37 39 43 49 54 55 56 60 61 60 62 59 55 58 61 57 55 52 42 39 47 52 55 58 56 54 55 55 55 55 54 57 56 51 51 53 53 53 50 48 49 37 28 32 29 19 18 17 15 15 10 15 36 46 44 42 40 40 41 41 43 43 43 46 44 35 33 35 38 41 42 39 38 38 36 35 35 34 36 35 30 28
Wind_Direction
221 221 222 225 229 227 224 223 223 221 217 213 213 214 216 217 218 219 220 219 216 215 215 216 217 218 217 216 217 218 218 219 217 215 215 214 216 219 221 221 220 216 213 213 217 220 218 213 215 218 214 207 203 206 213 214 214 215 217 219 222 227 226 226 223 210 208 217 222 229 220 211 228 239 237 234 231 235 234 236 240 242 239 214 211 206 195 199
220 220 220 222 227 228 224 222 222 222 220 216 213 213 215 215 216 217 218 218 217 216 215 216 217 218 218 217 217 218 220 221 220 220 216 214 215 219 221 221 219 215 213 215 218 222 221 214 214 216 213 208 204 205 212 216 215 217 219 219 220 220 220 223 222 215 214 215 216 214 207 208 221 232 231 228 226 224 222 225 232 241 249 239 219 204 187 190
221 220 220 220 224 228 226 222 221 222 221 220 214 210 212 213 213 215 216 217 217 217 215 216 217 218 218 218 218 218 220 222 223 221 216 213 215 218 220 221 220 217 216 217 218 221 223 217 212 213 212 210 207 205 209 214 214 215 217 215 218 219 221 223 223 222 220 218 219 213 207 209 219 228 225 219 222 218 214 221 219 228 234 225 210 197 187 186
221 221 220 219 221 226 227 222 221 221 219 221 214 208 210 211 211 213 215 216 216 215 214 215 218 219 219 218 218 218 218 223 224 220 217 215 215 218 219 220 220 218 217 215 214 216 219 219 213 208 207 210 209 207 209 211 212 214 216 215 217 218 221 224 223 224 223 222 222 219 216 215 221 226 223 220 220 206 208 216 207 209 213 206 198 185 180 184
221 222 220 219 219 223 227 224 221 221 219 219 213 207 209 210 210 212 214 215 215 215 214 215 219 219 218 218 218 218 217 223 225 218 217 219 215 218 219 219 219 218 215 212 212 211 212 216 215 210 204 207 209 209 211 212 212 215 217 218 215 214 217 222 225 225 225 226 225 225 224 225 230 228 226 224 207 185 201 207 205 207 205 200 198 185 174 175
220 221 220 218 219 220 226 226 222 221 220 218 212 206 209 210 209 211 212 213 214 214 214 215 219 218 216 217 218 219 217 221 223 216 216 219 216 217 219 219 219 218 214 211 211 209 207 208 212 215 210 207 208 212 216 216 216 216 216 218 214 211 214 218 224 225 225 228 229 229 229 233 238 234 231 221 190 188 203 202 206 209 206 203 198 185 174 173
218 220 220 218 218 219 221 225 224 222 221 219 213 207 208 208 208 210 211 211 212 212 213 213 215 216 214 215 216 219 219 221 222 216 215 218 217 217 218 220 219 219 215 211 212 209 206 206 208 213 214 211 209 211 216 219 218 217 214 215 216 215 215 217 223 227 226 228 231 231 231 237 241 239 231 213 188 199 206 203 206 207 207 206 200 193 185 180
217 219 220 217 217 220 220 223 226 224 223 221 216 211 207 205 206 208 209 212 214 210 210 209 210 213 213 213 214 217 219 219 220 216 215 216 217 216 215 218 218 219 215 210 213 209 203 206 207 208 212 213 212 212 215 218 220 219 216 213 215 221 220 220 223 228 229 228 234 233 232 237 240 242 231 210 203 209 208 205 206 206 205 203 201 200 194 189
215 217 218 217 216 219 219 220 224 224 223 221 218 214 206 204 204 205 203 208 214 211 209 208 207 211 212 212 214 219 220 217 216 216 215 215 216 215 214 215 216 217 215 210 214 210 201 203 205 204 209 212 212 214 215 220 223 223 223 219 219 227 227 223 223 230 232 230 235 236 235 237 237 242 232 214 215 215 211 210 206 204 203 201 203 202 197 193
213 214 215 216 216 218 217 216 220 222 222 220 220 216 207 203 203 202 201 202 206 208 209 209 206 206 209 210 212 219 221 217 216 215 215 215 215 216 214 214 215 218 218 212 212 212 203 201 204 202 207 214 213 214 217 222 228 229 228 228 230 234 232 227 225 230 235 234 238 240 239 237 236 239 231 218 222 222 217 214 209 204 202 203 204 203 200 195
211 211 213 214 215 217 215 212 215 219 219 219 220 218 210 204 202 200 203 203 203 208 210 210 208 205 205 209 213 218 218 214 216 215 214 215 215 215 214 213 214 217 218 215 214 214 208 200 201 203 205 212 213 214 220 224 231 234 231 235 237 232 230 232 231 231 237 238 239 243 243 237 234 233 228 223 228 228 223 218 213 207 202 203 205 207 205 199
208 208 210 212 214 215 212 209 211 214 217 218 220 219 213 206 202 198 200 203 206 212 213 211 210 205 203 209 214 218 217 212 214 215 214 214 212 212 212 213 215 216 216 216 216 216 214 204 199 205 209 212 213 214 222 224 230 236 235 239 238 229 232 239 237 235 238 242 242 246 249 240 232 230 228 232 233 229 227 221 216 211 205 204 205 208 208 205
205 207 209 210 211 212 211 209 208 211 216 218 219 219 215 208 201 197 196 200 207 216 214 212 213 206 203 209 213 215 215 213 213 214 215 214 212 209 207 209 212 212 212 216 217 214 214 210 202 207 213 216 216 215 219 223 227 234 237 239 239 237 241 242 239 238 239 244 244 247 256 245 233 231 232 234 231 228 227 223 219 215 210 207 206 208 210 210
202 205 207 207 208 209 210 208 207 210 215 219 220 219 216 210 202 197 193 196 208 219 214 209 212 208 204 210 213 213 212 210 210 213 214 214 212 208 205 205 207 207 206 211 215 213 213 212 208 211 216 218 218 217 218 223 226 230 234 237 238 240 244 242 239 240 240 244 246 245 254 247 234 231 233 234 230 227 227 225 222 219 214 210 208 209 211 213
199 201 203 203 205 207 208 206 206 209 212 216 218 220 218 211 204 197 195 198 206 216 212 206 208 209 206 209 214 214 209 207 208 210 212 213 211 208 205 203 202 203 203 207 211 212 212 213 215 216 216 216 217 216 216 221 224 225 227 232 234 234 241 244 243 242 238 241 246 243 248 246 237 230 230 232 230 227 228 228 226 223 219 214 210 211 212 214
196 195 197 199 203 205 204 202 202 205 207 208 210 217 218 212 208 200 197 202 206 208 206 202 204 207 208 209 212 212 208 205 206 207 209 211 212 210 207 203 201 201 201 205 209 209 210 213 217 219 218 216 216 215 213 217 221 219 219 225 233 234 241 248 249 245 237 235 240 240 242 244 240 233 228 231 232 229 229 230 230 227 223 219 215 213 212 214
194 192 194 196 200 201 199 198 198 200 202 206 209 216 216 211 212 207 199 202 205 209 210 206 203 205 209 211 209 209 207 204 203 204 205 205 208 210 209 204 200 201 201 203 207 208 209 211 215 216 217 217 216 214 209 210 213 216 219 227 240 242 246 250 249 247 239 234 237 240 242 241 238 235 229 231 234 232 230 231 232 231 227 224 220 217 215 215
191 191 193 195 198 196 195 195 195 197 200 206 210 216 216 210 210 206 200 202 203 209 216 217 210 201 204 211 210 207 207 205 201 200 202 201 201 205 209 207 202 200 199 201 204 205 206 209 212 213 215 215 213 211 208 207 212 218 224 234 245 247 249 252 251 247 237 233 236 239 243 241 234 232 231 231 233 234 234 232 232 232 230 229 225 222 219 219
190 191 193 193 192 190 191 192 192 193 196 201 203 211 215 211 209 202 197 202 196 191 199 207 211 204 204 210 210 207 206 206 201 197 199 199 196 197 202 205 204 200 200 200 202 204 204 204 205 209 212 212 210 211 211 215 224 229 232 242 252 254 256 260 258 250 238 231 236 239 244 245 236 229 229 231 232 233 235 233 232 233 233 233 230 227 224 222
191 192 192 191 190 189 190 190 192 191 190 193 195 204 209 207 210 205 201 203 193 187 186 196 207 209 211 212 207 204 203 203 202 196 196 198 196 194 195 200 201 201 202 203 203 204 204 204 206 209 211 213 214 215 218 224 233 239 242 248 256 260 263 266 262 253 242 235 236 238 242 246 242 232 227 230 232 231 233 234 233 234 236 237 235 232 228 226
190 189 190 192 192 190 190 190 192 190 188 188 188 199 207 208 212 208 203 203 193 191 186 189 201 205 209 213 209 202 198 197 201 200 196 195 195 193 193 197 200 201 203 205 206 204 204 209 213 214 213 213 216 219 222 226 231 238 244 250 256 261 264 268 264 251 245 241 238 237 240 243 242 236 228 229 233 231 231 233 233 234 235 237 236 233 231 230
190 189 187 190 192 189 188 190 191 190 186 184 188 199 209 213 215 210 204 203 199 199 192 180 195 201 204 210 211 205 197 193 195 197 195 192 193 193 193 197 200 203 203 204 204 203 206 212 215 217 216 213 215 221 226 228 229 235 243 249 255 258 261 265 263 251 243 244 242 240 241 242 241 239 232 229 231 230 231 233 233 233 234 234 234 233 233 233
192 192 189 190 191 188 189 190 191 191 185 181 190 201 210 214 215 214 210 210 210 207 197 179 189 199 201 205 211 207 200 195 193 193 194 193 192 194 196 196 197 201 203 204 204 203 207 212 213 216 217 215 217 223 227 230 231 235 242 247 250 254 256 255 256 254 247 247 248 246 248 246 242 241 237 232 232 231 230 233 233 232 233 233 234 234 234 234
193 193 193 192 190 189 190 191 191 192 185 181 189 197 210 218 218 217 214 217 221 211 200 186 187 196 200 205 209 207 203 201 199 197 195 194 193 194 199 198 195 199 204 206 206 207 211 212 212 217 219 218 221 225 227 229 230 233 237 240 243 248 252 252 252 257 256 255 255 254 258 254 245 242 241 235 234 234 232 233 234 233 233 234 235 235 235 235
192 191 192 191 190 191 190 192 193 192 185 181 187 189 199 214 217 219 218 220 228 221 208 199 194 197 201 205 205 204 205 204 203 202 198 196 195 194 197 201 200 200 203 206 208 212 216 216 217 220 220 218 220 225 227 227 228 231 232 235 240 247 252 253 250 253 258 262 260 257 264 262 250 245 243 239 236 236 235 235 234 235 235 235 235 236 237 237
194 192 192 191 191 191 191 194 194 192 186 182 185 186 191 205 207 213 216 217 229 230 218 210 208 205 202 202 199 196 199 199 200 203 199 197 200 197 194 199 203 205 204 203 206 212 217 219 220 221 220 217 219 225 226 224 222 226 231 235 244 249 248 246 243 244 245 249 256 249 244 268 261 251 246 242 240 238 237 236 235 234 236 236 236 236 236 237
198 197 196 195 193 193 195 196 194 193 190 184 186 188 194 202 204 207 206 210 229 228 222 212 208 206 201 200 196 189 190 191 192 197 195 192 198 200 197 198 200 206 207 201 200 210 215 215 217 219 220 218 219 222 220 215 214 224 231 235 245 246 237 235 235 236 240 248 258 248 240 266 270 259 252 245 242 241 238 237 236 234 235 237 237 236 236 237
201 201 200 199 195 195 198 197 195 197 194 187 185 190 196 202 208 208 195 192 228 219 221 212 201 201 198 198 198 192 192 192 187 186 189 189 190 194 199 203 203 203 206 203 201 207 212 212 212 214 214 215 217 215 210 206 211 223 227 226 232 237 232 233 236 237 244 256 263 250 242 252 267 263 261 254 247 243 240 238 237 236 235 236 238 238 237 237
201 202 203 201 197 197 198 197 198 199 196 190 187 190 194 199 205 199 188 196 213 208 216 208 196 196 195 195 195 193 193 194 188 181 181 185 186 188 194 203 206 201 200 203 205 205 206 210 212 209 209 211 211 209 207 205 210 217 220 220 217 219 226 229 236 241 246 256 256 249 243 245 266 266 263 261 256 249 244 241 238 237 236 236 237 239 238 237
197 199 202 201 197 197 198 199 200 200 198 192 189 190 188 190 195 190 181 199 196 197 207 203 196 193 190 188 189 192 191 191 191 184 177 181 185 187 190 195 199 197 193 196 202 203 199 200 204 204 206 209 207 205 204 206 211 212 210 206 192 186 206 217 229 236 244 255 247 244 244 242 268 270 264 261 260 257 254 249 241 238 238 237 237 238 239 239
190 195 199 199 197 197 199 201 202 201 199 194 191 188 186 192 198 193 170 185 182 185 193 196 196 191 187 184 183 190 191 188 191 187 179 181 184 187 189 185 183 185 186 188 193 196 192 189 196 202 205 207 207 202 197 201 205 205 205 192 166 149 170 197 218 219 228 253 229 242 253 244 245 261 265 266 265 265 263 258 249 241 238 238 238 238 239 240
184 190 196 198 197 197 199 203 203 202 199 197 195 187 187 198 210 217 183 172 178 187 187 194 197 190 186 184 183 188 189 185 189 189 185 183 183 187 189 185 181 174 175 184 188 188 189 190 196 203 206 205 203 196 188 193 197 197 198 187 165 132 154 194 201 206 236 248 173 236 257 245 246 256 265 268 270 269 266 266 262 252 242 239 239 240 241 242
183 188 192 196 197 198 200 202 203 203 199 198 197 190 191 200 218 221 203 166 172 192 188 197 199 190 186 184 182 185 187 185 187 189 190 188 185 188 191 192 192 185 178 182 181 178 180 190 198 201 205 205 204 198 190 185 187 190 190 184 172 146 154 212 208 217 253 240 222 234 249 253 258 266 268 267 270 269 266 267 266 260 250 243 240 239 240 242
185 189 191 194 197 199 201 201 202 202 199 199 195 190 196 205 210 212 209 190 184 191 189 194 193 186 185 186 183 182 182 182 185 187 188 189 186 185 188 192 194 193 186 180 177 176 171 185 200 200 203 204 204 207 205 194 184 185 192 193 188 182 181 204 203 204 241 209 209 217 229 254 260 263 265 270 277 275 269 265 259 255 253 248 244 241 239 240
187 191 192 193 197 200 202 203 203 201 199 200 197 189 196 205 204 208 210 207 205 200 192 193 191 185 185 186 184 185 181 176 180 183 185 189 187 184 188 192 194 195 192 184 180 183 183 189 201 201 205 206 202 206 211 202 188 184 192 199 200 200 203 209 215 212 201 150 201 208 223 240 245 251 258 268 278 281 282 275 265 262 259 252 248 245 241 239
186 191 194 193 198 202 204 206 204 201 200 200 200 200 199 201 205 207 209 212 215 212 200 192 190 188 188 186 182 184 183 175 177 180 183 190 191 188 191 193 193 195 197 194 185 182 184 190 197 199 201 205 206 206 205 202 197 189 191 199 205 209 211 215 234 220 215 248 230 217 235 250 257 263 265 265 270 273 273 274 275 278 273 259 251 249 247 243
185 188 190 192 197 203 206 208 206 202 200 200 205 211 207 203 207 207 205 209 214 218 212 197 190 188 188 188 183 181 181 176 176 179 180 186 190 191 192 193 195 197 202 201 192 183 181 174 181 192 193 194 200 203 203 204 206 197 195 203 206 208 216 220 226 201 208 248 248 228 246 260 261 264 267 267 270 269 266 266 268 271 268 257 255 257 253 247
190 188 186 189 196 204 208 207 205 201 197 198 207 214 214 210 208 208 209 205 204 210 207 196 194 194 189 187 185 181 180 176 174 178 180 182 189 195 194 195 197 198 202 204 199 193 187 167 157 184 189 188 189 194 197 202 211 211 209 211 207 204 213 212 212 218 209 237 264 243 251 260 253 249 257 262 260 261 264 261 256 256 255 252 254 253 251 247
203 195 187 191 197 205 211 208 202 200 196 198 206 213 217 217 210 205 208 210 208 211 210 200 194 195 195 191 185 181 181 178 175 178 182 184 191 198 198 198 198 197 199 201 202 201 194 179 156 178 184 183 184 190 194 197 205 211 215 217 211 210 206 199 208 216 201 229 254 248 244 259 259 258 262 264 260 259 262 259 250 253 257 253 249 244 243 245
216 204 186 190 197 203 213 211 201 198 200 203 206 210 216 220 217 208 204 211 216 218 220 215 201 195 194 193 188 183 182 181 180 182 186 188 191 196 199 200 200 197 195 197 200 200 194 188 172 170 178 183 188 194 198 199 201 202 206 208 208 211 206 204 220 220 217 231 246 255 251 254 263 269 275 275 270 266 264 261 257 253 248 239 238 241 241 243
228 219 199 189 199 203 207 206 199 200 206 210 211 210 214 222 224 218 213 215 218 218 220 220 215 205 197 194 192 186 181 182 183 184 188 191 190 193 198 201 201 198 193 193 197 197 193 192 180 167 177 188 194 198 201 203 205 204 204 204 207 208 201 197 223 219 219 225 221 249 274 262 261 268 275 278 275 271 270 271 264 248 234 231 238 243 241 242
235 232 219 188 198 207 208 210 210 210 212 215 215 214 216 222 226 225 221 219 217 217 217 218 218 213 203 197 194 187 182 184 185 186 191 195 195 198 199 199 201 200 195 192 194 194 193 191 179 170 181 191 197 203 203 206 211 211 212 212 211 209 206 204 211 214 215 222 233 250 285 268 264 265 268 268 264 264 268 266 254 236 230 232 236 238 239 242
242 244 243 226 217 213 212 214 213 214 218 220 219 218 219 222 226 227 224 221 221 217 213 215 217 212 206 201 195 187 184 185 187 189 193 195 199 202 200 198 199 200 197 194 193 193 193 187 170 159 173 187 196 207 208 210 213 214 218 218 213 213 213 211 216 227 214 216 229 236 265 264 267 271 271 268 261 256 259 243 220 217 224 228 232 236 242 249
254 258 255 248 232 213 210 214 213 215 220 223 221 219 220 223 226 228 226 222 222 221 216 216 216 212 208 203 197 191 186 185 187 191 194 196 199 202 201 199 199 199 199 200 197 193 191 183 170 151 135 178 196 210 210 211 212 213 217 216 213 214 212 211 221 231 229 229 224 207 248 261 267 273 271 265 256 246 244 234 221 220 224 227 233 239 244 252
252 255 250 241 231 221 220 225 227 226 222 221 221 220 220 222 225 228 229 225 223 224 225 220 214 212 209 204 199 194 189 187 189 191 195 197 198 202 203 201 201 201 201 201 200 197 191 184 180 171 154 170 190 193 201 205 205 208 213 212 214 213 208 213 220 218 230 238 224 212 239 254 261 267 264 259 257 243 229 226 223 221 225 229 234 240 245 253
248 249 241 223 222 230 237 235 231 233 229 222 220 219 218 219 222 226 230 228 226 228 230 226 216 209 207 203 197 192 189 191 191 191 194 196 198 199 201 201 202 202 201 199 199 198 192 190 194 196 197 201 202 201 203 203 201 205 212 214 217 216 212 215 216 215 227 232 224 227 240 250 256 260 255 241 240 230 212 216 220 220 227 234 236 243 248 252
249 251 248 231 212 218 229 233 227 227 228 226 224 220 217 215 219 226 228 228 228 227 230 233 228 216 205 199 194 190 190 192 193 191 191 195 197 195 194 196 198 200 201 199 198 197 193 195 203 208 213 217 214 211 213 213 213 217 217 216 216 214 213 213 215 223 227 222 232 242 244 250 255 256 251 243 246 247 229 222 225 230 238 244 245 246 248 247
250 254 255 251 231 218 223 233 237 229 223 224 226 223 219 213 215 223 225 225 227 225 225 233 233 227 212 199 194 191 189 191 193 192 191 192 192 185 179 183 193 199 200 198 199 200 199 205 209 207 210 218 218 217 219 219 222 227 225 221 218 214 213 214 221 230 226 220 241 250 248 253 261 263 260 255 253 254 243 230 231 236 242 248 249 247 243 239
251 254 255 255 252 244 239 246 251 240 223 220 221 220 219 214 213 219 222 221 223 222 222 227 229 227 217 203 197 193 191 191 192 194 196 195 192 184 175 177 189 197 198 199 200 202 205 211 212 207 207 215 218 221 222 222 223 227 227 227 225 222 222 225 232 235 228 228 244 253 253 258 264 267 265 261 256 249 241 236 236 236 239 244 244 244 241 233
251 254 258 257 256 254 247 242 244 238 223 216 216 216 216 215 214 217 219 220 219 217 218 223 224 222 216 206 200 200 202 203 202 203 202 198 196 195 189 188 190 190 195 200 201 202 206 211 213 209 205 209 215 217 218 220 223 223 223 226 228 228 230 233 237 236 228 232 246 252 253 258 264 264 263 263 260 251 244 244 241 234 236 237 235 236 235 229
253 254 256 255 254 252 243 232 233 231 221 214 213 213 213 213 214 216 218 221 222 217 215 219 219 216 213 209 207 209 210 210 210 211 209 204 202 202 200 197 194 189 189 196 200 202 203 204 208 205 198 193 202 205 201 206 212 218 222 223 222 223 225 228 233 233 229 234 244 244 246 255 264 267 265 262 260 258 257 256 250 243 241 235 230 233 231 228
253 253 251 248 248 249 243 233 229 225 219 217 216 213 211 210 213 214 214 218 222 219 218 219 216 210 208 210 213 214 212 211 212 212 213 211 208 207 206 204 200 196 191 190 194 198 199 198 195 191 187 180 181 182 181 179 180 219 226 225 221 219 222 226 231 233 232 235 240 241 245 258 268 270 269 266 267 270 271 270 267 263 256 241 233 235 234 236
Height
3020 3024 3027 3030 3034 3038 3043 3048 3052 3057 3061 3065 3070 3074 3079 3083 3088 3092 3096 3101 3104 3108 3112 3115 3119 3122 3124 3127 3130 3132 3135 3137 3138 3138 3139 3144 3149 3152 3153 3155 3158 3159 3162 3164 3165 3167 3170 3172 3174 3175 3178 3181 3183 3185 3186 3187 3188 3190 3191 3192 3193 3193 3193 3193 3193 3194 3194 3194 3194 3195 3195 3196 3196 3196 3196 3196 3196 3196 3196 3197 3197 3197 3197 3197 3196 3196 3196 3196
3015 3019 3023 3026 3029 3033 3038 3043 3047 3053 3058 3062 3066 3070 3075 3079 3084 3088 3093 3097 3101 3105 3108 3112 3116 3118 3121 3124 3127 3130 3132 3134 3134 3135 3138 3144 3146 3148 3151 3154 3156 3158 3160 3162 3164 3165 3168 3170 3172 3174 3176 3178 3180 3183 3185 3186 3187 3188 3189 3191 3192 3191 3191 3192 3192 3193 3193 3193 3193 3194 3194 3195 3195 3195 3195 3196 3196 3196 3196 3196 3196 3197 3197 3196 3196 3196 3196 3196
3010 3014 3018 3022 3026 3029 3033 3038 3042 3048 3054 3058 3062 3067 3071 3076 3081 3086 3090 3094 3097 3101 3105 3109 3112 3115 3119 3122 3125 3128 3130 3131 3130 3132 3137 3141 3143 3146 3149 3152 3154 3157 3159 3161 3163 3164 3166 3168 3171 3173 3174 3176 3179 3181 3183 3184 3185 3187 3188 3189 3189 3189 3190 3191 3191 3192 3192 3193 3193 3194 3194 3194 3194 3194 3195 3195 3195 3195 3196 3196 3196 3196 3196 3196 3195 3196 3196 3196
3005 3010 3014 3018 3022 3025 3028 3033 3038 3043 3050 3055 3058 3063 3068 3072 3077 3083 3087 3090 3094 3098 3101 3106 3109 3113 3116 3119 3123 3126 3128 3128 3125 3130 3136 3138 3141 3143 3147 3150 3153 3155 3157 3160 3162 3162 3164 3166 3169 3171 3173 3174 3177 3179 3181 3182 3183 3185 3186 3186 3187 3188 3189 3190 3190 3191 3191 3192 3193 3193 3193 3193 3193 3194 3194 3194 3194 3195 3195 3195 3195 3195 3195 3195 3195 3195 3195 3196
3000 3005 3009 3013 3017 3021 3024 3029 3033 3038 3044 3050 3055 3059 3064 3069 3074 3078 3083 3086 3090 3094 3098 3103 3106 3110 3113 3116 3120 3123 3126 3124 3121 3129 3134 3135 3139 3141 3144 3148 3150 3153 3156 3158 3160 3161 3162 3164 3166 3168 3170 3172 3175 3177 3179 3180 3182 3183 3183 3184 3185 3187 3188 3188 3189 3189 3190 3191 3192 3192 3193 3193 3193 3193 3193 3193 3194 3194 3194 3194 3194 3194 3194 3194 3194 3194 3194 3195
2995 3000 3005 3008 3012 3016 3020 3024 3029 3033 3039 3045 3051 3055 3060 3065 3070 3074 3078 3083 3087 3090 3095 3099 3103 3107 3110 3114 3118 3119 3121 3117 3118 3127 3131 3132 3137 3139 3142 3145 3148 3152 3154 3156 3158 3159 3161 3162 3164 3165 3168 3170 3172 3174 3176 3178 3180 3181 3181 3182 3184 3185 3186 3187 3187 3188 3189 3190 3191 3191 3192 3192 3192 3192 3192 3192 3193 3193 3193 3193 3194 3194 3194 3194 3194 3194 3194 3194
2990 2995 3000 3004 3008 3012 3016 3020 3024 3029 3034 3040 3046 3051 3056 3061 3066 3070 3075 3079 3084 3088 3092 3096 3100 3104 3107 3112 3115 3115 3115 3114 3118 3125 3128 3131 3134 3137 3141 3143 3146 3149 3151 3154 3156 3158 3159 3161 3162 3164 3166 3168 3170 3172 3174 3176 3178 3179 3180 3181 3183 3184 3185 3185 3186 3187 3188 3189 3189 3190 3191 3191 3191 3191 3191 3192 3193 3192 3192 3192 3193 3193 3194 3194 3194 3194 3194 3194
2986 2990 2996 3000 3004 3008 3012 3016 3020 3024 3029 3035 3041 3046 3051 3056 3060 3066 3073 3078 3082 3085 3089 3093 3097 3100 3104 3107 3109 3108 3108 3111 3117 3123 3125 3128 3132 3134 3138 3140 3144 3146 3149 3152 3154 3156 3157 3159 3161 3163 3165 3166 3168 3170 3172 3175 3176 3177 3178 3180 3181 3183 3184 3184 3185 3186 3187 3188 3188 3189 3189 3190 3190 3190 3190 3191 3192 3191 3191 3191 3191 3192 3193 3193 3194 3194 3194 3194
2981 2986 2992 2996 3000 3004 3008 3012 3016 3020 3025 3031 3036 3041 3047 3052 3056 3062 3070 3075 3078 3082 3086 3090 3093 3097 3101 3104 3106 3102 3101 3109 3116 3120 3123 3126 3128 3131 3135 3137 3140 3143 3146 3149 3152 3154 3155 3157 3159 3162 3164 3165 3167 3169 3171 3173 3174 3175 3177 3179 3180 3182 3183 3183 3184 3184 3185 3186 3187 3187 3188 3188 3189 3189 3189 3191 3191 3190 3190 3190 3190 3191 3192 3193 3193 3193 3194 3194
2977 2982 2987 2992 2997 3001 3004 3008 3011 3015 3021 3027 3032 3037 3044 3049 3053 3059 3065 3069 3074 3079 3083 3086 3089 3093 3096 3099 3100 3096 3100 3111 3116 3118 3121 3124 3126 3129 3132 3136 3138 3141 3144 3147 3150 3152 3154 3156 3159 3161 3164 3165 3166 3168 3170 3171 3172 3174 3176 3178 3179 3180 3181 3182 3182 3183 3184 3185 3185 3186 3186 3187 3187 3187 3188 3190 3190 3190 3190 3190 3190 3191 3191 3192 3192 3193 3193 3194
2974 2979 2983 2988 2993 2997 3001 3005 3007 3012 3018 3023 3028 3033 3040 3045 3050 3056 3061 3066 3071 3075 3079 3083 3085 3088 3091 3094 3093 3091 3100 3110 3112 3115 3119 3122 3125 3128 3131 3134 3137 3139 3143 3146 3148 3151 3152 3154 3158 3160 3162 3164 3165 3167 3169 3170 3171 3173 3175 3177 3177 3178 3180 3181 3181 3182 3182 3183 3184 3184 3184 3184 3185 3185 3187 3189 3189 3189 3189 3189 3190 3190 3190 3191 3191 3192 3192 3193
2970 2975 2979 2984 2989 2994 2998 3001 3005 3009 3014 3019 3024 3030 3037 3042 3047 3052 3058 3064 3068 3071 3076 3080 3082 3084 3087 3090 3088 3091 3101 3107 3109 3114 3116 3119 3123 3125 3129 3133 3135 3138 3141 3145 3147 3150 3152 3153 3156 3159 3160 3161 3164 3166 3166 3168 3169 3171 3173 3174 3175 3176 3178 3179 3180 3181 3181 3182 3182 3183 3182 3181 3182 3184 3186 3188 3188 3188 3188 3188 3189 3189 3189 3190 3190 3191 3192 3192
2966 2972 2976 2981 2986 2991 2995 2999 3002 3006 3011 3015 3020 3027 3033 3039 3044 3049 3055 3062 3066 3068 3072 3077 3079 3082 3083 3083 3085 3091 3099 3105 3108 3111 3113 3118 3121 3124 3127 3130 3133 3137 3140 3144 3146 3149 3152 3153 3154 3157 3159 3160 3162 3163 3164 3166 3168 3169 3171 3172 3174 3175 3175 3176 3178 3179 3180 3180 3181 3182 3180 3179 3181 3183 3184 3185 3186 3187 3187 3187 3187 3188 3188 3188 3189 3190 3191 3192
2963 2968 2973 2978 2983 2987 2992 2996 3000 3004 3008 3012 3017 3024 3030 3036 3042 3047 3052 3058 3063 3064 3067 3072 3075 3078 3079 3080 3083 3088 3095 3102 3104 3107 3110 3114 3118 3121 3124 3126 3130 3134 3137 3141 3144 3147 3149 3152 3153 3155 3157 3158 3160 3161 3163 3165 3166 3168 3169 3171 3172 3173 3172 3173 3176 3177 3178 3179 3179 3181 3178 3175 3179 3181 3182 3183 3184 3185 3185 3186 3186 3186 3187 3187 3188 3189 3190 3191
2960 2965 2970 2975 2979 2984 2988 2993 2997 3001 3005 3010 3015 3019 3026 3034 3039 3043 3048 3053 3058 3060 3061 3066 3069 3072 3075 3076 3079 3085 3092 3097 3099 3102 3107 3111 3115 3118 3120 3123 3127 3131 3135 3138 3141 3144 3147 3150 3152 3153 3155 3156 3158 3159 3161 3163 3165 3166 3168 3169 3169 3170 3171 3172 3174 3175 3176 3177 3177 3178 3175 3172 3176 3179 3181 3182 3182 3183 3183 3184 3184 3184 3185 3185 3186 3187 3188 3189
2958 2962 2967 2972 2977 2981 2985 2990 2994 2999 3003 3008 3012 3014 3021 3030 3035 3040 3043 3048 3054 3056 3056 3057 3060 3066 3070 3069 3073 3081 3087 3090 3094 3100 3105 3109 3114 3117 3119 3122 3125 3129 3132 3135 3138 3141 3144 3147 3149 3150 3152 3154 3155 3157 3160 3162 3163 3163 3165 3166 3166 3168 3170 3171 3172 3172 3173 3174 3174 3175 3172 3170 3174 3177 3179 3180 3180 3181 3182 3182 3183 3183 3183 3184 3185 3185 3186 3187
2957 2961 2965 2969 2974 2978 2983 2987 2991 2996 3000 3004 3008 3011 3017 3026 3033 3037 3040 3044 3049 3051 3051 3052 3057 3065 3067 3064 3066 3074 3080 3085 3090 3095 3101 3106 3111 3115 3117 3119 3122 3126 3129 3133 3136 3138 3141 3143 3145 3147 3149 3151 3153 3154 3156 3157 3158 3160 3163 3165 3165 3166 3168 3169 3170 3170 3171 3171 3171 3171 3168 3167 3171 3174 3176 3177 3177 3179 3179 3180 3181 3181 3182 3182 3183 3183 3184 3185
2955 2959 2963 2967 2971 2976 2980 2984 2988 2993 2997 3001 3005 3010 3015 3022 3028 3032 3035 3040 3044 3047 3049 3050 3052 3054 3053 3054 3059 3068 3077 3082 3086 3091 3096 3101 3106 3112 3115 3118 3120 3123 3127 3130 3132 3135 3138 3139 3142 3144 3145 3147 3148 3149 3150 3151 3155 3159 3162 3164 3163 3164 3165 3166 3167 3168 3168 3168 3168 3168 3164 3164 3168 3171 3173 3174 3175 3176 3176 3177 3178 3179 3180 3180 3181 3182 3182 3183
2953 2957 2961 2965 2970 2974 2978 2982 2986 2990 2994 2999 3003 3008 3013 3018 3024 3026 3029 3034 3036 3037 3039 3036 3038 3042 3043 3048 3057 3067 3076 3080 3083 3088 3092 3097 3102 3107 3112 3116 3119 3121 3123 3126 3128 3131 3133 3136 3138 3138 3139 3140 3142 3145 3147 3151 3155 3158 3161 3162 3162 3162 3162 3163 3165 3166 3165 3165 3165 3165 3163 3162 3164 3167 3169 3170 3171 3172 3173 3175 3176 3177 3177 3178 3179 3180 3181 3182
2951 2954 2959 2963 2967 2972 2975 2979 2983 2987 2992 2996 3001 3004 3007 3011 3015 3017 3020 3026 3027 3028 3029 3029 3034 3043 3046 3048 3053 3063 3072 3078 3081 3084 3089 3093 3097 3103 3108 3112 3117 3119 3120 3122 3124 3127 3131 3133 3131 3131 3134 3137 3141 3145 3149 3153 3156 3157 3159 3160 3160 3160 3160 3160 3163 3163 3163 3162 3161 3162 3161 3159 3161 3164 3166 3166 3167 3168 3170 3172 3173 3174 3175 3176 3177 3178 3179 3180
2949 2952 2957 2961 2965 2969 2973 2977 2980 2984 2989 2994 2998 2999 3000 3003 3007 3010 3016 3022 3025 3027 3028 3030 3035 3039 3042 3046 3050 3056 3062 3069 3077 3082 3085 3091 3095 3099 3102 3107 3111 3113 3116 3119 3122 3125 3128 3127 3126 3129 3133 3139 3144 3147 3149 3152 3154 3155 3156 3158 3158 3158 3158 3159 3160 3160 3160 3159 3158 3159 3158 3156 3157 3160 3162 3162 3162 3164 3167 3169 3170 3171 3173 3173 3174 3176 3177 3178
2948 2950 2954 2958 2963 2968 2971 2975 2978 2982 2986 2991 2995 2997 2999 3003 3008 3014 3019 3021 3024 3026 3026 3028 3032 3035 3039 3045 3050 3053 3057 3062 3070 3075 3080 3086 3091 3094 3097 3101 3104 3107 3112 3116 3118 3122 3123 3121 3124 3129 3134 3140 3144 3145 3147 3150 3152 3153 3154 3155 3155 3156 3157 3157 3158 3158 3158 3157 3156 3157 3155 3153 3154 3156 3158 3158 3158 3161 3164 3166 3167 3169 3169 3170 3171 3173 3174 3175
2946 2949 2953 2957 2962 2966 2970 2973 2977 2980 2984 2988 2992 2996 2998 3002 3007 3013 3018 3020 3022 3023 3024 3023 3027 3032 3037 3040 3045 3051 3057 3060 3063 3068 3075 3081 3086 3090 3093 3097 3101 3105 3109 3111 3114 3117 3116 3118 3124 3128 3133 3138 3140 3142 3145 3147 3149 3151 3151 3153 3154 3154 3155 3156 3156 3156 3156 3155 3154 3155 3153 3150 3151 3153 3154 3156 3156 3158 3160 3162 3164 3165 3166 3168 3169 3170 3171 3172
2945 2949 2953 2956 2960 2965 2968 2972 2975 2979 2983 2987 2990 2994 2997 3000 3005 3008 3014 3018 3018 3019 3022 3022 3024 3029 3033 3037 3042 3048 3054 3059 3060 3064 3071 3075 3081 3087 3091 3095 3099 3102 3105 3107 3112 3114 3114 3118 3124 3127 3132 3136 3138 3140 3143 3144 3147 3148 3149 3150 3151 3152 3153 3155 3156 3155 3155 3154 3153 3155 3152 3146 3146 3148 3149 3153 3155 3154 3156 3158 3159 3161 3164 3165 3166 3167 3168 3170
2944 2948 2951 2955 2959 2963 2967 2971 2974 2978 2982 2986 2989 2994 2997 2999 3002 3006 3011 3016 3016 3017 3019 3020 3022 3026 3031 3036 3040 3045 3053 3058 3060 3063 3067 3071 3076 3081 3087 3094 3096 3097 3101 3107 3112 3114 3115 3118 3123 3127 3130 3133 3135 3137 3139 3142 3145 3146 3146 3147 3150 3151 3152 3153 3155 3155 3155 3154 3151 3154 3151 3141 3140 3144 3145 3149 3152 3151 3153 3154 3156 3158 3160 3162 3162 3164 3166 3167
2943 2947 2950 2954 2958 2962 2966 2969 2973 2977 2981 2984 2987 2992 2995 2997 3001 3004 3011 3017 3015 3013 3015 3018 3020 3023 3028 3033 3036 3044 3051 3053 3057 3062 3065 3071 3075 3078 3084 3089 3092 3095 3100 3106 3111 3112 3112 3117 3122 3125 3127 3130 3132 3133 3136 3140 3143 3142 3142 3146 3149 3150 3151 3151 3153 3154 3154 3152 3149 3152 3150 3140 3136 3138 3141 3145 3146 3147 3149 3149 3151 3155 3156 3157 3159 3161 3163 3164
2942 2945 2949 2953 2956 2960 2964 2967 2971 2975 2978 2982 2985 2990 2993 2996 3000 3004 3011 3017 3011 3007 3011 3015 3017 3019 3025 3030 3032 3037 3040 3043 3054 3061 3062 3068 3074 3077 3081 3083 3088 3094 3098 3103 3107 3106 3108 3114 3119 3122 3125 3127 3128 3130 3134 3138 3140 3139 3141 3146 3148 3148 3149 3150 3151 3152 3151 3150 3149 3148 3149 3144 3134 3130 3135 3140 3142 3142 3143 3144 3146 3150 3152 3154 3156 3158 3160 3161
2940 2943 2947 2951 2955 2958 2962 2965 2970 2973 2976 2980 2984 2988 2991 2995 3000 3003 3009 3011 3004 3002 3007 3011 3015 3018 3022 3028 3030 3031 3033 3037 3047 3054 3060 3066 3069 3073 3078 3080 3083 3089 3094 3098 3100 3101 3105 3110 3113 3118 3122 3123 3124 3128 3131 3135 3137 3137 3141 3145 3145 3146 3148 3149 3150 3150 3149 3150 3148 3145 3147 3146 3132 3125 3130 3134 3136 3136 3137 3140 3143 3146 3148 3150 3152 3154 3156 3158
2938 2941 2945 2948 2953 2956 2960 2964 2968 2970 2974 2979 2983 2986 2990 2996 3000 3002 3005 3004 2997 2998 3004 3008 3013 3015 3020 3025 3027 3029 3032 3036 3039 3046 3056 3062 3064 3068 3073 3078 3082 3087 3092 3096 3097 3100 3103 3108 3113 3117 3119 3120 3123 3127 3131 3133 3133 3135 3140 3142 3143 3145 3146 3148 3149 3149 3150 3148 3143 3142 3145 3144 3130 3122 3126 3128 3127 3130 3133 3137 3140 3142 3145 3146 3149 3151 3153 3155
2936 2939 2942 2946 2950 2954 2958 2962 2965 2968 2973 2977 2981 2985 2990 2994 2997 2997 2998 2996 2993 2996 3001 3005 3009 3011 3015 3020 3022 3025 3029 3033 3038 3045 3051 3055 3060 3065 3070 3076 3082 3086 3090 3095 3097 3099 3102 3108 3113 3115 3117 3118 3121 3126 3129 3132 3133 3134 3138 3139 3142 3144 3145 3148 3147 3149 3151 3143 3139 3140 3142 3145 3133 3117 3119 3122 3121 3126 3130 3133 3136 3139 3141 3142 3145 3147 3149 3152
2934 2937 2940 2944 2948 2952 2956 2960 2963 2966 2971 2975 2979 2983 2987 2991 2992 2991 2991 2990 2992 2996 2999 3002 3006 3008 3011 3013 3017 3021 3025 3029 3034 3039 3045 3051 3057 3062 3066 3073 3078 3082 3087 3091 3095 3098 3101 3106 3108 3110 3113 3116 3119 3123 3127 3129 3130 3133 3135 3137 3140 3144 3146 3147 3147 3149 3147 3138 3137 3138 3140 3145 3131 3111 3113 3118 3118 3123 3127 3129 3132 3134 3137 3139 3141 3144 3146 3148
2933 2936 2939 2942 2946 2950 2953 2958 2962 2966 2969 2972 2976 2980 2984 2988 2987 2984 2984 2986 2990 2992 2994 2998 3002 3005 3009 3011 3012 3015 3019 3024 3030 3035 3040 3045 3050 3054 3059 3064 3067 3074 3080 3084 3090 3096 3100 3102 3104 3107 3110 3112 3116 3120 3123 3126 3128 3129 3131 3134 3138 3142 3146 3146 3145 3145 3141 3136 3137 3138 3139 3137 3118 3108 3113 3115 3115 3120 3122 3125 3128 3130 3133 3135 3138 3140 3142 3144
2932 2935 2938 2941 2944 2948 2951 2956 2961 2964 2968 2971 2974 2978 2982 2983 2980 2979 2981 2983 2985 2988 2991 2996 2999 3003 3006 3008 3009 3012 3015 3018 3023 3031 3038 3042 3046 3050 3056 3060 3062 3066 3072 3078 3084 3089 3096 3099 3101 3103 3105 3108 3111 3113 3114 3117 3121 3124 3126 3129 3132 3137 3143 3142 3141 3140 3138 3135 3135 3138 3140 3127 3109 3108 3112 3111 3113 3116 3118 3121 3123 3125 3128 3131 3133 3135 3137 3139
2932 2934 2937 2940 2943 2947 2950 2955 2959 2963 2967 2970 2972 2976 2979 2978 2976 2978 2980 2981 2984 2986 2990 2993 2997 3001 3003 3004 3006 3009 3014 3017 3020 3026 3033 3038 3042 3047 3052 3058 3063 3067 3070 3077 3081 3082 3088 3092 3093 3096 3098 3101 3106 3109 3110 3113 3118 3122 3125 3128 3128 3130 3134 3134 3134 3135 3134 3133 3133 3138 3135 3119 3107 3108 3108 3109 3112 3113 3115 3118 3119 3121 3124 3126 3129 3130 3132 3135
2931 2934 2937 2940 2943 2946 2949 2953 2957 2961 2965 2968 2971 2973 2973 2973 2974 2974 2976 2979 2983 2986 2989 2993 2996 2999 3000 3002 3005 3006 3008 3013 3018 3025 3030 3033 3036 3040 3044 3050 3057 3062 3065 3071 3077 3080 3084 3085 3087 3092 3095 3099 3104 3108 3112 3116 3119 3122 3124 3127 3126 3126 3128 3129 3129 3129 3131 3131 3130 3129 3121 3108 3105 3107 3106 3110 3111 3110 3113 3115 3117 3119 3120 3123 3124 3126 3129 3131
2931 2934 2937 2940 2943 2946 2948 2952 2955 2959 2963 2966 2968 2968 2968 2970 2972 2972 2975 2978 2981 2985 2989 2993 2995 2996 2997 2999 3003 3005 3006 3008 3012 3020 3026 3030 3034 3036 3039 3043 3048 3054 3057 3060 3067 3074 3080 3084 3086 3091 3096 3100 3103 3106 3110 3113 3115 3118 3121 3122 3122 3124 3127 3128 3129 3128 3131 3129 3122 3118 3111 3106 3107 3105 3105 3110 3110 3109 3112 3112 3114 3116 3117 3119 3120 3122 3126 3127
2930 2933 2937 2940 2943 2945 2947 2950 2954 2957 2961 2964 2965 2965 2965 2968 2970 2971 2974 2976 2980 2985 2988 2990 2992 2993 2994 2997 2999 3001 3004 3008 3010 3015 3021 3027 3031 3034 3038 3043 3046 3050 3053 3056 3061 3066 3071 3079 3085 3088 3093 3098 3101 3105 3109 3111 3112 3114 3115 3116 3119 3125 3126 3127 3128 3128 3130 3126 3117 3111 3109 3108 3109 3104 3102 3107 3107 3108 3110 3110 3112 3114 3114 3116 3117 3119 3121 3122
2929 2932 2936 2939 2942 2944 2946 2949 2953 2956 2959 2962 2964 2964 2965 2966 2969 2971 2974 2976 2980 2984 2985 2986 2989 2990 2992 2994 2996 2998 3001 3005 3009 3014 3019 3025 3029 3031 3035 3040 3044 3049 3052 3057 3062 3064 3068 3078 3086 3089 3092 3096 3100 3104 3106 3108 3111 3111 3112 3114 3119 3123 3123 3124 3126 3125 3125 3123 3115 3109 3107 3105 3103 3100 3101 3104 3106 3107 3108 3109 3110 3111 3112 3113 3114 3116 3117 3118
2927 2931 2935 2938 2940 2942 2944 2948 2952 2955 2958 2960 2961 2963 2964 2965 2968 2971 2974 2977 2980 2983 2985 2985 2985 2988 2991 2992 2993 2995 2997 3000 3005 3010 3015 3020 3023 3027 3031 3034 3039 3045 3050 3054 3058 3062 3066 3075 3084 3087 3090 3095 3098 3099 3100 3101 3105 3108 3111 3114 3116 3118 3119 3120 3121 3120 3120 3119 3114 3108 3105 3098 3093 3095 3099 3101 3103 3106 3107 3107 3109 3110 3111 3111 3111 3113 3114 3115
2926 2930 2933 2936 2938 2940 2942 2946 2950 2954 2956 2958 2960 2963 2965 2965 2967 2970 2973 2976 2979 2982 2984 2985 2985 2985 2988 2991 2993 2993 2995 2998 3000 3003 3008 3012 3017 3022 3027 3030 3034 3040 3048 3053 3056 3060 3064 3069 3077 3084 3089 3092 3092 3091 3092 3094 3097 3100 3104 3107 3110 3113 3116 3117 3116 3116 3116 3115 3112 3108 3101 3091 3088 3092 3096 3098 3100 3102 3103 3105 3106 3107 3108 3109 3109 3110 3111 3112
2923 2927 2930 2934 2936 2938 2940 2943 2946 2950 2953 2955 2957 2962 2964 2963 2965 2968 2972 2975 2978 2980 2981 2983 2985 2985 2986 2988 2990 2991 2994 2998 2999 3002 3006 3009 3012 3016 3020 3025 3030 3036 3043 3049 3053 3057 3062 3065 3071 3079 3083 3085 3085 3086 3090 3093 3094 3094 3096 3099 3102 3106 3110 3112 3112 3110 3112 3111 3109 3107 3098 3085 3085 3092 3093 3095 3098 3098 3100 3102 3103 3104 3106 3106 3107 3108 3108 3109
2921 2923 2927 2932 2934 2936 2938 2939 2942 2946 2948 2950 2954 2959 2961 2962 2963 2966 2969 2973 2975 2976 2978 2980 2982 2984 2985 2985 2986 2989 2992 2995 2997 3000 3002 3005 3008 3010 3015 3022 3029 3035 3039 3045 3049 3053 3058 3063 3068 3075 3079 3081 3084 3087 3089 3092 3094 3096 3097 3098 3101 3104 3105 3107 3106 3105 3107 3108 3106 3107 3099 3081 3080 3090 3092 3094 3095 3096 3098 3099 3100 3102 3103 3104 3105 3104 3105 3106
2917 2921 2925 2929 2932 2934 2936 2938 2940 2943 2944 2947 2951 2955 2958 2959 2961 2963 2966 2970 2971 2972 2975 2976 2978 2980 2983 2985 2986 2987 2989 2992 2995 2998 2999 3003 3007 3010 3015 3020 3027 3034 3037 3040 3045 3050 3057 3061 3066 3074 3080 3082 3085 3087 3089 3092 3094 3094 3094 3094 3097 3100 3100 3103 3104 3103 3104 3104 3103 3108 3100 3078 3074 3086 3089 3090 3093 3094 3096 3097 3097 3099 3099 3100 3101 3101 3102 3102
2915 2918 2922 2926 2929 2931 2933 2934 2937 2939 2941 2945 2948 2951 2954 2955 2957 2959 2962 2966 2968 2970 2972 2973 2975 2977 2980 2983 2984 2985 2987 2990 2994 2997 2998 3001 3005 3009 3015 3019 3023 3029 3032 3034 3038 3044 3051 3056 3061 3070 3080 3085 3087 3088 3088 3087 3086 3085 3086 3089 3092 3094 3099 3103 3102 3102 3103 3101 3101 3105 3095 3075 3073 3083 3085 3085 3090 3092 3094 3095 3095 3096 3096 3097 3097 3098 3098 3099
2913 2917 2920 2923 2925 2928 2929 2931 2933 2935 2937 2940 2942 2946 2949 2951 2953 2955 2959 2963 2966 2967 2970 2972 2974 2976 2978 2980 2982 2984 2986 2987 2989 2993 2996 3001 3004 3008 3014 3019 3022 3026 3030 3034 3038 3041 3047 3050 3052 3058 3066 3070 3071 3071 3069 3068 3073 3078 3082 3086 3087 3091 3097 3097 3099 3102 3099 3094 3095 3094 3083 3071 3072 3079 3080 3083 3087 3089 3092 3093 3093 3094 3094 3094 3095 3095 3096 3097
2911 2913 2917 2921 2923 2924 2926 2928 2931 2932 2934 2937 2938 2941 2945 2948 2950 2952 2956 2960 2963 2965 2968 2970 2972 2975 2976 2977 2980 2982 2985 2986 2987 2989 2993 2998 3002 3006 3012 3017 3023 3027 3030 3035 3039 3042 3046 3049 3049 3051 3053 3053 3053 3055 3058 3062 3069 3075 3078 3080 3083 3087 3091 3093 3096 3095 3088 3086 3086 3081 3074 3071 3072 3075 3078 3081 3085 3087 3090 3091 3090 3091 3092 3092 3093 3093 3093 3093
2907 2908 2912 2916 2919 2920 2922 2925 2927 2929 2932 2934 2935 2937 2940 2944 2948 2949 2952 2956 2959 2963 2967 2968 2970 2973 2973 2974 2977 2980 2983 2985 2987 2989 2992 2996 2999 3005 3012 3018 3022 3026 3029 3034 3038 3040 3044 3046 3048 3051 3053 3054 3055 3058 3062 3066 3069 3070 3072 3075 3079 3083 3087 3090 3089 3082 3080 3085 3081 3073 3073 3074 3070 3072 3075 3078 3082 3086 3088 3089 3089 3089 3090 3090 3090 3090 3090 3090
2903 2905 2908 2911 2914 2917 2918 2920 2922 2924 2927 2930 2932 2934 2936 2940 2943 2943 2947 2953 2956 2960 2964 2965 2966 2969 2971 2972 2973 2976 2980 2983 2986 2989 2991 2994 2998 3004 3011 3019 3023 3024 3028 3034 3036 3039 3043 3044 3045 3050 3054 3055 3057 3060 3062 3065 3067 3069 3071 3073 3076 3079 3081 3082 3078 3074 3078 3082 3073 3068 3073 3071 3066 3069 3073 3075 3079 3082 3084 3086 3087 3087 3087 3088 3088 3088 3089 3088
2900 2902 2904 2907 2908 2911 2913 2915 2917 2919 2920 2923 2927 2930 2931 2936 2939 2939 2943 2949 2952 2957 2962 2963 2962 2965 2969 2971 2972 2972 2973 2976 2981 2985 2987 2992 2997 3001 3006 3013 3019 3023 3026 3030 3033 3038 3041 3042 3045 3049 3051 3053 3056 3058 3060 3063 3066 3068 3069 3071 3073 3074 3074 3073 3070 3070 3076 3077 3069 3068 3071 3067 3063 3067 3069 3071 3075 3079 3080 3082 3083 3085 3085 3085 3086 3086 3086 3087
2896 2899 2902 2903 2903 2905 2909 2911 2913 2915 2917 2918 2920 2923 2927 2933 2936 2937 2939 2943 2947 2953 2958 2958 2959 2962 2965 2969 2971 2970 2969 2970 2973 2976 2980 2986 2991 2995 2998 3001 3005 3013 3021 3024 3028 3033 3037 3039 3042 3046 3049 3052 3053 3055 3058 3062 3063 3065 3067 3069 3070 3069 3068 3066 3065 3069 3075 3073 3066 3065 3067 3062 3058 3062 3065 3067 3069 3073 3076 3078 3079 3081 3082 3082 3082 3083 3084 3084
2892 2895 2898 2898 2897 2900 2904 2907 2909 2910 2912 2913 2914 2917 2922 2927 2932 2936 2937 2939 2945 2950 2951 2952 2956 2960 2963 2967 2968 2967 2970 2973 2974 2976 2978 2981 2984 2987 2990 2994 2997 3002 3010 3017 3022 3027 3031 3034 3037 3042 3047 3049 3051 3054 3057 3059 3061 3064 3063 3061 3059 3058 3059 3059 3061 3064 3067 3063 3060 3062 3063 3057 3053 3058 3062 3061 3063 3067 3070 3072 3075 3077 3079 3079 3079 3079 3080 3081
2888 2890 2893 2893 2892 2893 2897 2901 2903 2903 2903 2906 2910 2913 2916 2922 2929 2933 2934 2937 2942 2947 2949 2952 2957 2959 2960 2961 2961 2964 2971 2976 2977 2979 2982 2983 2985 2986 2989 2993 2997 2998 3002 3009 3016 3022 3026 3029 3033 3038 3044 3047 3051 3054 3055 3058 3062 3059 3050 3046 3048 3051 3055 3057 3057 3056 3057 3056 3057 3057 3055 3052 3053 3056 3057 3057 3059 3062 3064 3066 3069 3071 3074 3076 3076 3076 3076 3076